Theta_e
295 296 297 297 298 298 299 299 300 300 300 300 300 301 301 300 300 299 299 298 298 298 298 298 298 297 297 297 297 296 296 296 295 295 295 294 294 294 294 295 295 296
294 294 295 296 296 297 297 297 298 298 299 299 299 299 300 300 300 299 299 298 298 298 298 297 297 297 297 297 296 296 296 295 295 295 295 294 294 294 294 294 294 295
293 293 293 294 294 295 295 296 296 297 297 297 298 298 298 298 299 299 299 298 297 297 297 297 297 297 297 296 296 296 296 295 295 295 295 294 294 294 294 293 294 294
293 293 293 293 293 293 294 294 295 295 296 296 296 296 297 297 297 298 298 297 297 297 297 297 297 296 296 296 296 296 295 295 295 295 294 294 294 294 294 293 293 293
291 292 293 293 293 293 293 293 293 293 294 294 295 295 295 296 296 296 296 296 296 296 296 296 296 296 296 296 295 295 295 295 295 294 294 294 294 293 293 293 293 293
289 290 290 291 292 292 292 292 292 292 292 293 293 293 294 294 294 295 295 295 296 295 295 295 295 295 295 295 295 295 295 294 294 294 294 294 294 293 293 293 293 292
288 288 288 289 290 290 291 291 291 292 292 292 292 292 293 293 293 294 294 294 295 295 295 295 295 295 295 295 295 294 294 294 294 294 293 293 293 293 293 293 293 292
289 288 288 288 288 288 289 289 290 291 291 291 291 291 291 292 292 292 293 293 293 294 294 294 294 294 294 294 294 294 294 294 294 293 293 293 293 293 293 292 292 292
288 288 288 287 287 287 287 287 288 288 289 290 291 291 291 291 291 291 291 292 292 292 293 293 294 294 294 294 294 293 293 293 293 293 293 293 293 292 292 292 292 292
287 287 287 287 286 286 287 287 287 287 287 288 289 290 290 291 291 291 290 291 291 291 291 292 293 293 293 293 293 293 293 293 293 293 292 292 292 292 292 292 292 292
287 287 286 286 286 286 286 286 286 286 286 286 287 288 289 289 290 290 290 290 290 290 290 291 291 291 292 292 292 292 292 292 292 292 292 292 292 292 292 292 291 291
287 287 287 287 286 285 285 285 285 285 285 285 285 286 287 288 288 289 289 290 290 290 290 290 290 290 290 291 291 291 291 291 291 291 291 291 291 291 291 291 291 291
287 287 287 286 286 285 285 285 285 284 285 285 284 285 285 286 286 287 288 288 289 289 290 290 289 289 289 290 290 290 290 290 290 291 290 290 291 290 290 290 290 290
287 287 287 286 285 285 285 284 284 284 284 284 284 284 285 284 285 285 286 287 288 288 289 289 289 289 289 289 289 289 289 289 290 290 290 290 290 290 290 290 290 290
286 287 287 286 285 285 285 284 284 284 284 284 284 284 284 284 284 284 284 285 286 287 287 288 288 289 289 289 289 289 289 289 289 289 289 289 289 289 290 290 289 289
286 286 286 286 285 285 284 283 283 283 284 284 284 284 284 284 284 284 284 285 285 285 286 286 287 288 288 288 289 288 288 288 288 289 289 289 289 289 289 289 289 289
285 285 285 285 284 284 284 283 282 283 284 284 284 284 284 284 284 284 284 284 285 285 285 285 285 286 286 287 287 288 288 288 288 288 288 288 288 288 289 289 289 289
285 285 284 284 284 283 283 282 282 282 284 285 285 285 284 284 284 284 284 284 284 284 284 285 285 285 285 285 285 286 287 288 288 288 288 288 288 288 288 288 288 288
284 284 283 283 283 282 282 281 281 281 282 284 285 285 285 284 284 284 284 284 284 284 284 284 284 284 284 284 284 284 285 287 288 288 288 288 288 288 288 288 288 288
283 283 283 283 282 282 281 281 280 280 281 283 284 284 284 283 283 283 283 284 284 284 284 284 284 284 284 283 283 283 283 285 287 288 288 288 288 288 288 288 288 288
282 282 282 282 282 281 281 280 280 280 280 281 283 284 283 282 282 282 283 283 283 283 283 283 283 283 283 283 283 283 283 284 286 287 287 288 288 288 288 288 288 288
282 282 282 282 281 281 280 280 279 279 279 280 282 282 281 281 281 281 281 281 282 282 282 282 282 283 283 283 283 283 283 284 285 286 286 287 287 288 288 288 288 288
282 281 281 281 281 280 279 279 278 278 278 279 280 280 280 279 279 279 279 280 280 281 281 282 282 282 282 283 282 282 283 284 285 285 286 286 287 287 288 288 288 288
281 281 281 281 280 279 279 278 278 277 277 278 279 279 278 278 278 278 278 278 279 279 280 281 282 282 282 282 282 282 282 283 284 285 286 286 286 287 287 287 288 288
280 280 280 280 279 279 278 277 277 276 276 277 278 277 277 276 276 276 276 277 277 278 279 280 281 281 281 281 281 282 282 283 284 285 285 285 286 286 287 287 287 288
278 278 278 278 278 277 276 276 276 275 275 276 276 276 275 275 275 275 275 275 276 277 277 278 278 279 280 281 281 282 282 282 283 284 285 285 285 286 286 286 287 287
Wind_Speed
13 11 11 11 10 11 11 11 10 10 10 10 12 13 12 12 11 12 16 19 20 22 23 23 25 27 29 30 31 33 34 34 36 37 38 40 41 40 40 40 38 35
16 14 12 11 11 11 12 12 12 12 11 11 11 12 13 13 11 11 14 18 20 21 23 23 23 25 26 28 30 32 33 34 34 35 36 38 39 40 42 41 41 41
21 18 15 13 13 13 13 12 12 12 12 12 11 11 11 12 13 12 13 17 19 20 21 22 23 24 24 26 28 30 32 33 33 33 35 38 38 39 41 41 41 42
24 21 19 17 15 14 13 13 12 12 12 13 13 12 12 12 12 13 15 16 18 18 19 20 22 23 24 25 26 28 30 32 33 32 33 36 38 37 38 39 39 40
21 21 21 20 18 16 14 13 13 13 12 13 13 13 13 12 12 14 15 16 17 18 19 20 21 22 24 25 26 27 29 30 31 32 32 34 35 36 37 37 38 39
20 20 19 18 16 15 14 13 13 12 12 13 13 13 13 12 12 13 14 15 16 17 19 20 21 22 23 24 25 27 28 28 29 31 33 34 34 34 35 36 37 37
19 21 21 20 17 15 14 14 14 14 14 14 13 13 13 12 12 11 12 14 15 16 17 18 20 21 22 23 24 25 26 27 28 29 31 33 34 34 34 35 37 37
16 17 18 18 18 18 18 18 17 16 16 16 15 15 14 13 12 11 11 12 14 15 16 17 18 19 20 21 23 24 25 26 27 28 29 31 32 33 34 34 36 38
15 15 15 16 17 18 20 21 21 20 19 17 15 15 15 15 15 14 13 13 13 15 16 17 18 18 19 20 22 23 24 26 27 28 30 30 31 32 33 33 35 38
15 16 16 17 19 19 19 20 21 22 21 19 17 17 16 15 15 14 14 15 15 16 16 17 18 18 19 20 21 22 24 25 26 28 30 31 32 32 33 33 34 36
13 14 16 17 19 20 20 20 21 22 22 20 19 18 17 17 17 16 14 14 15 16 18 18 19 19 19 20 20 21 23 25 26 27 28 30 32 33 33 33 34 36
12 13 14 15 17 19 20 21 21 22 23 21 20 19 18 17 18 17 16 14 14 14 16 18 19 20 20 20 21 21 23 24 25 26 27 28 30 32 33 34 36 36
10 12 13 14 16 17 19 20 21 22 22 22 22 21 20 20 19 17 16 15 14 14 14 15 16 18 19 21 22 23 24 25 25 26 27 28 29 30 32 33 35 37
10 11 12 14 16 16 16 18 20 22 22 22 23 22 21 22 21 19 18 17 15 14 14 14 15 15 16 18 21 22 24 26 28 28 28 28 29 30 31 33 34 35
13 13 13 14 16 17 17 19 20 21 21 22 23 21 21 21 21 20 20 18 17 16 15 15 14 15 16 16 18 19 22 25 27 29 30 31 31 30 31 32 33 34
16 15 15 16 17 17 18 21 22 22 21 22 22 21 22 22 21 21 20 18 18 18 18 17 16 16 16 16 17 18 21 24 26 28 30 32 33 33 32 32 33 33
17 16 17 19 20 19 20 22 23 22 22 23 23 22 22 22 21 22 21 19 19 19 19 19 19 18 17 17 18 19 20 23 26 28 29 31 32 33 33 33 33 34
19 19 20 21 21 22 23 24 24 22 22 23 23 23 24 24 24 23 22 22 21 20 21 21 22 22 22 21 21 20 20 22 25 27 28 30 31 32 33 33 32 33
21 23 24 24 23 24 25 26 25 25 24 23 22 23 23 23 25 25 25 24 22 22 23 23 23 25 25 25 25 24 22 21 24 26 27 28 30 31 32 32 32 32
23 24 27 28 28 29 29 29 28 27 26 24 23 23 23 23 25 25 25 25 25 25 26 26 26 28 29 29 29 28 25 23 23 26 28 28 30 31 31 32 32 32
23 24 25 27 29 30 31 32 32 30 30 27 23 23 25 25 26 26 26 27 28 28 28 29 32 34 34 32 30 30 28 25 23 26 27 29 31 31 31 32 32 32
23 25 25 26 27 28 30 31 32 32 33 29 25 26 28 28 27 27 28 30 31 29 28 30 34 36 35 33 32 31 29 26 25 26 26 28 30 31 31 32 32 33
24 25 25 26 27 28 29 30 31 33 32 29 27 28 30 30 30 30 30 31 32 32 31 31 34 36 35 34 35 34 29 26 26 26 26 28 30 31 30 30 32 33
25 26 27 28 29 29 30 31 32 32 33 30 28 28 30 32 31 32 34 33 33 34 34 33 35 38 38 37 38 38 32 28 26 26 26 28 30 30 30 30 32 34
26 28 29 29 30 30 30 32 33 33 33 31 27 27 29 31 30 32 36 38 37 37 36 34 36 40 42 40 40 39 35 29 26 25 25 28 29 29 29 30 32 33
28 29 31 31 31 32 32 33 32 32 32 30 28 28 29 29 29 31 35 38 39 38 38 38 39 42 45 44 42 40 36 31 27 25 26 29 29 28 28 29 31 31
Wind_Direction
8 358 345 335 325 320 317 313 308 302 298 295 293 292 288 282 265 250 256 260 254 249 245 240 238 239 238 236 234 232 232 232 231 231 230 229 229 229 228 227 227 226
17 9 357 347 337 330 325 318 311 304 297 289 288 290 291 293 283 258 258 268 265 258 255 249 243 241 240 238 236 235 234 234 234 233 232 231 231 230 230 230 229 229
29 21 9 358 346 335 330 324 316 308 302 295 289 285 283 286 283 269 265 271 270 264 259 254 250 246 243 242 240 239 237 236 236 235 234 233 232 232 232 232 232 232
36 33 26 18 8 353 340 331 324 316 311 307 300 295 288 281 278 275 274 273 269 265 260 256 253 250 247 246 244 241 241 240 239 238 238 237 235 235 235 234 235 235
38 39 38 34 26 15 3 348 336 326 319 314 308 304 298 290 284 280 278 276 271 268 265 260 257 253 251 249 246 244 244 243 241 240 240 241 239 237 237 236 236 237
37 39 40 37 30 22 14 4 355 348 339 329 318 310 304 297 291 286 283 280 276 272 269 265 261 257 254 251 248 247 246 244 243 242 241 242 242 240 239 237 237 238
27 31 33 33 31 28 22 14 7 3 358 352 340 327 317 308 300 294 290 286 281 276 272 268 265 261 258 254 251 251 249 247 246 244 243 242 242 241 240 239 238 238
15 18 20 21 24 26 25 23 20 15 8 2 354 344 335 326 318 311 304 296 289 284 278 273 269 265 262 258 254 254 253 250 249 246 244 244 244 242 241 240 239 240
14 13 11 12 14 17 18 19 21 21 18 14 4 354 347 340 333 327 321 314 304 295 287 281 275 270 266 262 258 257 256 254 252 248 247 247 247 245 243 241 241 241
14 14 13 13 13 13 10 10 12 14 15 15 10 5 1 355 348 339 330 322 315 308 300 291 284 278 274 269 265 262 259 257 255 252 251 250 250 249 248 245 243 243
3 6 9 10 12 11 8 7 7 6 8 9 6 4 3 1 1 358 346 329 317 310 303 297 292 286 282 278 273 268 265 263 260 256 254 254 253 253 252 249 246 245
351 354 358 359 2 6 6 5 3 2 3 4 3 2 359 356 357 357 353 343 328 315 305 300 296 291 287 284 280 275 272 269 266 262 259 257 256 256 254 252 249 248
339 343 347 349 351 355 357 358 358 357 357 357 358 360 357 354 352 348 345 339 331 322 311 304 300 295 290 288 286 283 280 275 271 267 263 260 259 259 257 255 252 251
327 328 332 339 343 345 346 348 350 350 350 350 351 353 351 351 351 346 340 334 328 321 311 304 299 295 292 290 288 286 284 281 277 273 269 266 263 261 259 257 255 254
324 323 323 327 332 335 337 340 342 342 342 342 343 343 343 343 343 341 338 334 329 323 316 310 299 293 294 294 291 287 282 279 277 275 273 271 270 267 263 259 258 257
323 321 320 322 324 326 327 331 335 335 333 333 333 333 334 335 333 332 331 327 324 322 320 317 310 302 300 297 293 289 283 278 274 272 270 270 270 271 269 265 263 260
322 319 319 319 319 319 319 323 329 328 325 324 324 323 325 327 325 324 323 320 318 318 318 316 314 311 308 304 300 294 285 278 273 270 268 267 267 268 268 268 266 264
318 316 315 315 314 314 314 317 322 322 320 317 314 314 316 318 319 317 316 316 314 313 313 312 311 312 312 310 308 303 292 280 274 270 267 264 264 265 266 266 266 265
311 311 311 309 308 308 310 313 315 316 317 312 307 306 306 308 311 311 310 311 310 308 308 307 306 309 311 310 309 307 302 289 277 270 267 264 263 263 264 264 265 266
303 305 305 304 305 306 308 310 310 311 313 310 303 300 300 300 302 303 303 303 303 304 305 303 302 305 309 309 308 309 308 298 283 275 270 267 265 263 262 262 263 263
297 297 296 296 299 301 303 305 306 307 309 308 301 295 295 297 298 298 297 296 297 299 299 297 298 302 306 307 308 309 309 302 289 280 274 270 268 267 264 263 262 261
291 292 290 288 290 294 296 297 298 300 302 303 298 292 293 294 293 293 294 294 294 294 292 291 292 296 299 301 304 306 304 297 288 283 278 274 272 270 267 265 263 261
289 289 287 284 284 287 287 289 291 293 294 295 291 288 290 291 290 291 291 291 291 291 289 287 287 289 291 293 297 299 296 290 285 281 277 276 275 273 270 268 265 262
288 288 286 282 281 282 283 286 287 287 289 290 285 281 284 287 287 289 289 288 287 287 286 284 283 285 287 287 290 292 291 285 280 277 274 274 274 274 272 269 267 265
291 290 287 283 281 281 283 285 285 285 286 285 278 275 280 283 283 284 286 286 285 284 283 281 280 282 284 284 283 285 286 281 275 271 270 271 271 271 272 270 269 267
293 291 288 285 284 285 286 286 284 283 283 281 275 274 278 279 278 279 281 282 282 281 281 280 279 280 282 282 280 279 279 276 270 265 264 267 269 269 269 270 270 268